Location: Calvatone
(45.1167°N, 10.4333°E)
Time: 10:46:31
(UTC+00:00)

METEOR M2 - Pass Details

Date: 11 December 2023
Orbit: 818 x 826 km, 98.4° (Epoch: 24 February)

Event Time Altitude Azimuth Distance (km) Brightness Sun altitude
Rises 16:01:52 0° 160° (SSE) 3,351 ? -4.7°
Reaches altitude 10° 16:04:12 10° 159° (SSE) 2,422 ? -5.1°
Maximum altitude 16:09:34 78° 74° (ENE) 848 ? -6.0°
Drops below altitude 10° 16:14:58 10° 349° (N) 2,437 ? -6.8°
Sets 16:17:19 0° 348° (NNW) 3,373 ? -7.2°
